Time,TemperatureF,DewpointF,PressureIn,WindDirection,WindDirectionDegrees,WindSpeedMPH,WindSpeedGustMPH,Humidity,HourlyPrecipIn,Conditions,Clouds,dailyrainin,SoftwareType,DateUTC
2013-05-21 00:01:00,66.0,65.7,29.96,SW,225,0.0,3.0,99,0.01,,,0.00,Weather View 32 v70,2013-05-21 04:01:00,
2013-05-21 00:06:00,66.0,65.7,29.96,SW,225,0.0,3.0,99,0.01,,,0.00,Weather View 32 v70,2013-05-21 04:06:00,
2013-05-21 00:11:00,66.0,65.7,29.96,SW,225,0.0,3.0,99,0.01,,,0.00,Weather View 32 v70,2013-05-21 04:11:00,
2013-05-21 00:16:00,66.0,65.7,29.96,NNE,22,1.0,2.0,99,0.01,,,0.00,Weather View 32 v70,2013-05-21 04:16:00,
2013-05-21 00:21:00,66.0,65.7,29.95,SW,225,0.0,2.0,99,0.01,,,0.00,Weather View 32 v70,2013-05-21 04:21:00,
2013-05-21 00:26:00,66.0,65.7,29.95,SW,225,0.0,5.0,99,0.01,,,0.00,Weather View 32 v70,2013-05-21 04:26:00,
2013-05-21 00:31:00,66.0,65.7,29.95,SW,225,0.0,5.0,99,0.01,,,0.00,Weather View 32 v70,2013-05-21 04:31:00,
2013-05-21 00:36:00,66.0,65.7,29.95,SW,225,0.0,5.0,99,0.01,,,0.00,Weather View 32 v70,2013-05-21 04:36:00,
2013-05-21 00:41:00,66.0,65.7,29.95,SW,225,0.0,6.0,99,0.01,,,0.00,Weather View 32 v70,2013-05-21 04:41:00,
2013-05-21 00:46:00,66.0,65.7,29.95,SW,225,0.0,6.0,99,0.01,,,0.00,Weather View 32 v70,2013-05-21 04:46:00,
2013-05-21 00:51:00,66.0,65.7,29.94,WSW,247,0.0,7.0,99,0.01,,,0.00,Weather View 32 v70,2013-05-21 04:51:00,
2013-05-21 00:56:00,66.0,65.7,29.94,NNW,337,0.0,7.0,99,0.00,,,0.00,Weather View 32 v70,2013-05-21 04:56:00,
2013-05-21 01:01:00,67.0,66.7,29.94,NW,315,0.0,7.0,99,0.00,,,0.00,Weather View 32 v70,2013-05-21 05:01:00,
2013-05-21 01:06:00,67.0,66.7,29.94,SW,225,0.0,7.0,99,0.00,,,0.00,Weather View 32 v70,2013-05-21 05:06:00,
2013-05-21 01:11:00,67.0,66.7,29.94,SW,225,0.0,7.0,99,0.00,,,0.00,Weather View 32 v70,2013-05-21 05:11:00,
2013-05-21 01:16:00,67.0,66.7,29.94,SW,225,0.0,7.0,99,0.00,,,0.00,Weather View 32 v70,2013-05-21 05:16:00,
2013-05-21 01:21:00,67.0,66.7,29.93,SSW,202,0.0,7.0,99,0.00,,,0.00,Weather View 32 v70,2013-05-21 05:21:00,
2013-05-21 01:26:00,67.0,66.7,29.93,SSW,202,3.0,7.0,99,0.00,,,0.00,Weather View 32 v70,2013-05-21 05:26:00,
2013-05-21 01:31:00,67.0,66.7,29.93,SSW,202,0.0,7.0,99,0.00,,,0.00,Weather View 32 v70,2013-05-21 05:31:00,
2013-05-21 01:36:00,67.0,66.7,29.93,SW,225,0.0,7.0,99,0.00,,,0.00,Weather View 32 v70,2013-05-21 05:36:00,
2013-05-21 01:41:00,67.0,66.7,29.93,SW,225,4.0,7.0,99,0.00,,,0.00,Weather View 32 v70,2013-05-21 05:41:00,
2013-05-21 01:46:00,67.0,66.7,29.93,SW,225,0.0,7.0,99,0.00,,,0.00,Weather View 32 v70,2013-05-21 05:46:00,
2013-05-21 01:51:00,67.0,66.7,29.93,SW,225,0.0,6.0,99,0.00,,,0.00,Weather View 32 v70,2013-05-21 05:51:00,
2013-05-21 01:56:00,67.0,66.7,29.93,SW,225,2.0,6.0,99,0.00,,,0.00,Weather View 32 v70,2013-05-21 05:56:00,
2013-05-21 02:01:00,67.0,66.7,29.93,SW,225,1.0,6.0,99,0.00,,,0.00,Weather View 32 v70,2013-05-21 06:01:00,
2013-05-21 02:06:00,67.0,66.7,29.93,SW,225,1.0,6.0,99,0.00,,,0.00,Weather View 32 v70,2013-05-21 06:06:00,
2013-05-21 02:11:00,67.0,66.7,29.93,SW,225,0.0,6.0,99,0.00,,,0.00,Weather View 32 v70,2013-05-21 06:11:00,
2013-05-21 02:16:00,67.0,66.7,29.93,SW,225,0.0,6.0,99,0.00,,,0.00,Weather View 32 v70,2013-05-21 06:16:00,
2013-05-21 02:21:00,67.0,66.7,29.93,SW,225,0.0,6.0,99,0.00,,,0.00,Weather View 32 v70,2013-05-21 06:21:00,
2013-05-21 02:26:00,67.0,66.7,29.93,SW,225,0.0,6.0,99,0.00,,,0.00,Weather View 32 v70,2013-05-21 06:26:00,
2013-05-21 02:31:00,67.0,66.7,29.93,SW,225,0.0,5.0,99,0.00,,,0.00,Weather View 32 v70,2013-05-21 06:31:00,
2013-05-21 02:36:00,67.0,66.7,29.93,SW,225,0.0,5.0,99,0.00,,,0.00,Weather View 32 v70,2013-05-21 06:36:00,
2013-05-21 02:41:00,67.0,66.7,29.93,SW,225,0.0,4.0,99,0.00,,,0.00,Weather View 32 v70,2013-05-21 06:41:00,
2013-05-21 02:46:00,67.0,66.7,29.93,SW,225,2.0,4.0,99,0.00,,,0.00,Weather View 32 v70,2013-05-21 06:46:00,
2013-05-21 02:51:00,67.0,66.7,29.93,SSW,202,0.0,4.0,99,0.00,,,0.00,Weather View 32 v70,2013-05-21 06:51:00,
2013-05-21 02:56:00,67.0,66.7,29.93,SSW,202,0.0,4.0,99,0.00,,,0.00,Weather View 32 v70,2013-05-21 06:56:00,
2013-05-21 03:01:00,67.0,66.7,29.93,SSW,202,0.0,4.0,99,0.00,,,0.00,Weather View 32 v70,2013-05-21 07:01:00,
2013-05-21 03:06:00,67.0,66.7,29.93,West,270,0.0,7.0,99,0.00,,,0.00,Weather View 32 v70,2013-05-21 07:06:00,
2013-05-21 03:11:00,67.0,66.7,29.93,SW,225,0.0,7.0,99,0.00,,,0.00,Weather View 32 v70,2013-05-21 07:11:00,
2013-05-21 03:16:00,67.0,66.7,29.93,SSW,202,4.0,7.0,99,0.00,,,0.00,Weather View 32 v70,2013-05-21 07:16:00,
2013-05-21 03:21:00,67.0,66.7,29.93,South,180,1.0,7.0,99,0.00,,,0.00,Weather View 32 v70,2013-05-21 07:21:00,
2013-05-21 03:26:00,67.0,66.7,29.93,South,180,0.0,7.0,99,0.00,,,0.00,Weather View 32 v70,2013-05-21 07:26:00,
2013-05-21 03:31:00,67.0,66.7,29.93,South,180,0.0,7.0,99,0.00,,,0.00,Weather View 32 v70,2013-05-21 07:31:00,
2013-05-21 03:36:00,67.0,66.7,29.93,South,180,0.0,7.0,99,0.00,,,0.00,Weather View 32 v70,2013-05-21 07:36:00,
2013-05-21 03:41:00,67.0,66.7,29.93,South,180,0.0,7.0,99,0.00,,,0.00,Weather View 32 v70,2013-05-21 07:41:00,
2013-05-21 03:46:00,67.0,66.7,29.93,South,180,0.0,7.0,99,0.00,,,0.00,Weather View 32 v70,2013-05-21 07:46:00,
2013-05-21 03:51:00,67.0,66.7,29.93,South,180,0.0,7.0,99,0.00,,,0.00,Weather View 32 v70,2013-05-21 07:51:00,
2013-05-21 03:56:00,67.0,66.7,29.93,SSW,202,3.0,7.0,99,0.00,,,0.00,Weather View 32 v70,2013-05-21 07:56:00,
2013-05-21 04:01:00,67.0,66.7,29.93,SSW,202,0.0,7.0,99,0.00,,,0.00,Weather View 32 v70,2013-05-21 08:01:00,
2013-05-21 04:06:00,67.0,66.7,29.93,SSW,202,0.0,6.0,99,0.00,,,0.00,Weather View 32 v70,2013-05-21 08:06:00,
2013-05-21 04:11:00,67.0,66.7,29.93,SSW,202,0.0,6.0,99,0.00,,,0.00,Weather View 32 v70,2013-05-21 08:11:00,
2013-05-21 04:16:00,67.0,66.7,29.93,SSW,202,0.0,6.0,99,0.00,,,0.00,Weather View 32 v70,2013-05-21 08:16:00,
2013-05-21 04:21:00,67.0,66.7,29.93,SSW,202,0.0,3.0,99,0.00,,,0.00,Weather View 32 v70,2013-05-21 08:21:00,
2013-05-21 04:26:00,67.0,66.7,29.93,SW,225,0.0,4.0,99,0.00,,,0.00,Weather View 32 v70,2013-05-21 08:26:00,
2013-05-21 04:31:00,67.0,66.7,29.93,SW,225,2.0,4.0,99,0.00,,,0.00,Weather View 32 v70,2013-05-21 08:31:00,
2013-05-21 04:36:00,67.0,66.7,29.93,SW,225,0.0,6.0,99,0.00,,,0.00,Weather View 32 v70,2013-05-21 08:36:00,
2013-05-21 04:41:00,67.0,66.7,29.93,SW,225,0.0,6.0,99,0.00,,,0.00,Weather View 32 v70,2013-05-21 08:41:00,
2013-05-21 04:46:00,67.0,66.7,29.93,SW,225,0.0,6.0,99,0.00,,,0.00,Weather View 32 v70,2013-05-21 08:46:00,
2013-05-21 04:51:00,67.0,66.7,29.93,SW,225,0.0,6.0,99,0.00,,,0.00,Weather View 32 v70,2013-05-21 08:51:00,
2013-05-21 04:56:00,67.0,66.7,29.93,SW,225,0.0,6.0,99,0.00,,,0.00,Weather View 32 v70,2013-05-21 08:56:00,
2013-05-21 05:01:00,67.0,66.7,29.93,SW,225,0.0,6.0,99,0.00,,,0.00,Weather View 32 v70,2013-05-21 09:01:00,
2013-05-21 05:06:00,67.0,66.7,29.93,SW,225,0.0,6.0,99,0.00,,,0.00,Weather View 32 v70,2013-05-21 09:06:00,
2013-05-21 05:11:00,67.0,66.7,29.93,SW,225,0.0,6.0,99,0.00,,,0.00,Weather View 32 v70,2013-05-21 09:11:00,
2013-05-21 05:16:00,67.0,66.7,29.93,SW,225,0.0,6.0,99,0.00,,,0.00,Weather View 32 v70,2013-05-21 09:16:00,
2013-05-21 05:21:00,67.0,66.7,29.93,WSW,247,0.0,6.0,99,0.00,,,0.00,Weather View 32 v70,2013-05-21 09:21:00,
2013-05-21 05:26:00,67.0,66.7,29.93,WSW,247,0.0,6.0,99,0.00,,,0.00,Weather View 32 v70,2013-05-21 09:26:00,
2013-05-21 05:31:00,67.0,66.7,29.94,SW,225,0.0,6.0,99,0.00,,,0.00,Weather View 32 v70,2013-05-21 09:31:00,
2013-05-21 05:36:00,67.0,66.7,29.94,SW,225,0.0,4.0,99,0.00,,,0.00,Weather View 32 v70,2013-05-21 09:36:00,
2013-05-21 05:41:00,67.0,66.7,29.94,SW,225,0.0,4.0,99,0.00,,,0.00,Weather View 32 v70,2013-05-21 09:41:00,
2013-05-21 05:46:00,67.0,66.7,29.94,SW,225,0.0,4.0,99,0.00,,,0.00,Weather View 32 v70,2013-05-21 09:46:00,
2013-05-21 05:51:00,67.0,66.7,29.94,SW,225,0.0,4.0,99,0.00,,,0.00,Weather View 32 v70,2013-05-21 09:51:00,
2013-05-21 05:56:00,67.0,66.7,29.94,SW,225,0.0,4.0,99,0.00,,,0.00,Weather View 32 v70,2013-05-21 09:56:00,
2013-05-21 06:01:00,67.0,66.7,29.95,SW,225,0.0,4.0,99,0.00,,,0.00,Weather View 32 v70,2013-05-21 10:01:00,
2013-05-21 06:06:00,67.0,66.7,29.95,SW,225,0.0,4.0,99,0.00,,,0.00,Weather View 32 v70,2013-05-21 10:06:00,
2013-05-21 06:11:00,67.0,66.7,29.95,SW,225,0.0,4.0,99,0.00,,,0.00,Weather View 32 v70,2013-05-21 10:11:00,
2013-05-21 06:16:00,67.0,66.7,29.95,SW,225,0.0,4.0,99,0.00,,,0.00,Weather View 32 v70,2013-05-21 10:16:00,
2013-05-21 06:21:00,67.0,66.7,29.95,SW,225,0.0,4.0,99,0.00,,,0.00,Weather View 32 v70,2013-05-21 10:21:00,
2013-05-21 06:26:00,67.0,66.7,29.95,SW,225,0.0,4.0,99,0.00,,,0.00,Weather View 32 v70,2013-05-21 10:26:00,
2013-05-21 06:31:00,67.0,66.7,29.95,SW,225,0.0,4.0,99,0.00,,,0.00,Weather View 32 v70,2013-05-21 10:31:00,
2013-05-21 06:36:00,67.0,66.7,29.95,SW,225,0.0,4.0,99,0.00,,,0.00,Weather View 32 v70,2013-05-21 10:36:00,
2013-05-21 06:41:00,67.0,66.7,29.95,SW,225,0.0,1.0,99,0.00,,,0.00,Weather View 32 v70,2013-05-21 10:41:00,
2013-05-21 06:46:00,67.0,66.7,29.95,SW,225,0.0,2.0,99,0.00,,,0.00,Weather View 32 v70,2013-05-21 10:46:00,
2013-05-21 06:51:00,67.0,66.7,29.96,SW,225,0.0,2.0,99,0.00,,,0.00,Weather View 32 v70,2013-05-21 10:51:00,
2013-05-21 06:57:00,67.0,66.7,29.96,SW,225,0.0,2.0,99,0.00,,,0.00,Weather View 32 v70,2013-05-21 10:57:00,
2013-05-21 07:02:00,67.0,66.7,29.96,SW,225,0.0,2.0,99,0.00,,,0.00,Weather View 32 v70,2013-05-21 11:02:00,
2013-05-21 07:07:00,67.0,66.7,29.96,SW,225,0.0,2.0,99,0.00,,,0.00,Weather View 32 v70,2013-05-21 11:07:00,
2013-05-21 07:12:00,67.0,66.7,29.96,SSW,202,0.0,3.0,99,0.00,,,0.00,Weather View 32 v70,2013-05-21 11:12:00,
2013-05-21 07:17:00,67.0,66.7,29.96,SSE,157,0.0,4.0,99,0.00,,,0.00,Weather View 32 v70,2013-05-21 11:17:00,
2013-05-21 07:22:00,67.0,66.7,29.96,SSE,157,0.0,4.0,99,0.00,,,0.00,Weather View 32 v70,2013-05-21 11:22:00,
2013-05-21 07:27:00,67.0,66.7,29.96,SSE,157,0.0,4.0,99,0.00,,,0.00,Weather View 32 v70,2013-05-21 11:27:00,
2013-05-21 07:32:00,67.0,66.7,29.97,SSE,157,0.0,4.0,99,0.00,,,0.00,Weather View 32 v70,2013-05-21 11:32:00,
2013-05-21 07:37:00,67.0,66.7,29.97,SSE,157,0.0,4.0,99,0.00,,,0.00,Weather View 32 v70,2013-05-21 11:37:00,
2013-05-21 07:42:00,67.0,66.7,29.97,SSE,157,0.0,4.0,99,0.00,,,0.00,Weather View 32 v70,2013-05-21 11:42:00,
2013-05-21 07:47:00,67.0,66.7,29.97,West,270,0.0,7.0,99,0.00,,,0.00,Weather View 32 v70,2013-05-21 11:47:00,
2013-05-21 07:52:00,67.0,66.7,29.97,West,270,0.0,7.0,99,0.00,,,0.00,Weather View 32 v70,2013-05-21 11:52:00,
2013-05-21 07:57:00,67.0,66.7,29.97,West,270,0.0,7.0,99,0.00,,,0.00,Weather View 32 v70,2013-05-21 11:57:00,
2013-05-21 08:02:00,68.0,67.7,29.97,West,270,1.0,7.0,99,0.00,,,0.00,Weather View 32 v70,2013-05-21 12:02:00,
2013-05-21 08:07:00,68.0,67.7,29.97,SW,225,0.0,7.0,99,0.00,,,0.00,Weather View 32 v70,2013-05-21 12:07:00,
2013-05-21 08:12:00,68.0,67.7,29.97,WSW,247,0.0,7.0,99,0.00,,,0.00,Weather View 32 v70,2013-05-21 12:12:00,
2013-05-21 08:17:00,68.0,67.7,29.97,WSW,247,0.0,7.0,99,0.00,,,0.00,Weather View 32 v70,2013-05-21 12:17:00,
2013-05-21 08:22:00,68.0,67.7,29.97,SW,225,0.0,7.0,99,0.00,,,0.00,Weather View 32 v70,2013-05-21 12:22:00,
2013-05-21 08:27:00,68.0,67.7,29.97,SSW,202,0.0,7.0,99,0.00,,,0.00,Weather View 32 v70,2013-05-21 12:27:00,
2013-05-21 08:32:00,69.0,68.7,29.97,SW,225,1.0,7.0,99,0.00,,,0.00,Weather View 32 v70,2013-05-21 12:32:00,
2013-05-21 08:37:00,69.0,68.7,29.97,WSW,247,0.0,7.0,99,0.00,,,0.00,Weather View 32 v70,2013-05-21 12:37:00,
2013-05-21 08:42:00,69.0,68.7,29.97,West,270,4.0,7.0,99,0.00,,,0.00,Weather View 32 v70,2013-05-21 12:42:00,
2013-05-21 08:47:00,69.0,68.7,29.97,WSW,247,4.0,7.0,99,0.00,,,0.00,Weather View 32 v70,2013-05-21 12:47:00,
2013-05-21 08:52:00,69.0,68.7,29.97,SSW,202,2.0,8.0,99,0.00,,,0.00,Weather View 32 v70,2013-05-21 12:52:00,
2013-05-21 08:57:00,69.0,68.7,29.97,WSW,247,1.0,8.0,99,0.00,,,0.00,Weather View 32 v70,2013-05-21 12:57:00,
2013-05-21 09:02:00,69.0,68.7,29.97,West,270,5.0,9.0,99,0.00,,,0.00,Weather View 32 v70,2013-05-21 13:02:00,
2013-05-21 09:07:00,70.0,69.7,29.97,WSW,247,2.0,9.0,99,0.00,,,0.00,Weather View 32 v70,2013-05-21 13:07:00,
2013-05-21 09:12:00,70.0,69.7,29.97,SW,225,3.0,9.0,99,0.00,,,0.00,Weather View 32 v70,2013-05-21 13:12:00,
2013-05-21 09:17:00,70.0,69.7,29.97,SW,225,4.0,9.0,99,0.00,,,0.00,Weather View 32 v70,2013-05-21 13:17:00,
2013-05-21 09:22:00,70.0,69.7,29.97,WSW,247,7.0,9.0,99,0.00,,,0.00,Weather View 32 v70,2013-05-21 13:22:00,
2013-05-21 09:27:00,70.0,69.7,29.97,WSW,247,3.0,10.0,99,0.00,,,0.00,Weather View 32 v70,2013-05-21 13:27:00,
2013-05-21 09:32:00,71.0,70.7,29.97,SW,225,1.0,10.0,99,0.00,,,0.00,Weather View 32 v70,2013-05-21 13:32:00,
2013-05-21 09:37:00,71.0,70.7,29.97,SW,225,4.0,10.0,99,0.00,,,0.00,Weather View 32 v70,2013-05-21 13:37:00,
2013-05-21 09:42:00,71.0,70.7,29.97,South,180,6.0,10.0,99,0.00,,,0.00,Weather View 32 v70,2013-05-21 13:42:00,
2013-05-21 09:47:00,71.0,70.7,29.97,WSW,247,2.0,10.0,99,0.00,,,0.00,Weather View 32 v70,2013-05-21 13:47:00,
2013-05-21 09:52:00,71.0,70.7,29.97,SW,225,5.0,10.0,99,0.00,,,0.00,Weather View 32 v70,2013-05-21 13:52:00,
2013-05-21 09:57:00,71.0,70.7,29.97,SSW,202,3.0,10.0,99,0.00,,,0.00,Weather View 32 v70,2013-05-21 13:57:00,
2013-05-21 10:02:00,71.0,70.7,29.97,WSW,247,3.0,10.0,99,0.00,,,0.00,Weather View 32 v70,2013-05-21 14:02:00,
2013-05-21 10:07:00,72.0,71.7,29.97,West,270,3.0,10.0,99,0.00,,,0.00,Weather View 32 v70,2013-05-21 14:07:00,
2013-05-21 10:12:00,72.0,71.7,29.96,West,270,4.0,11.0,99,0.00,,,0.00,Weather View 32 v70,2013-05-21 14:12:00,
2013-05-21 10:17:00,73.0,72.7,29.96,SW,225,2.0,11.0,99,0.00,,,0.00,Weather View 32 v70,2013-05-21 14:17:00,
2013-05-21 10:22:00,74.0,73.7,29.95,SW,225,3.0,11.0,99,0.00,,,0.00,Weather View 32 v70,2013-05-21 14:22:00,
2013-05-21 10:27:00,74.0,73.7,29.95,SW,225,4.0,11.0,99,0.00,,,0.00,Weather View 32 v70,2013-05-21 14:27:00,
2013-05-21 10:32:00,75.0,74.7,29.95,SW,225,6.0,11.0,99,0.00,,,0.00,Weather View 32 v70,2013-05-21 14:32:00,
2013-05-21 10:37:00,76.0,76.0,29.95,SW,225,6.0,11.0,100,0.00,,,0.00,Weather View 32 v70,2013-05-21 14:37:00,
2013-05-21 10:42:00,77.0,77.0,29.93,SSW,202,0.0,11.0,100,0.00,,,0.00,Weather View 32 v70,2013-05-21 14:42:00,
2013-05-21 10:47:00,77.0,77.0,29.93,SW,225,2.0,11.0,100,0.00,,,0.00,Weather View 32 v70,2013-05-21 14:47:00,
2013-05-21 10:52:00,78.0,78.0,29.93,SW,225,3.0,11.0,100,0.00,,,0.00,Weather View 32 v70,2013-05-21 14:52:00,
2013-05-21 10:57:00,77.0,77.0,29.93,West,270,4.0,11.0,100,0.00,,,0.00,Weather View 32 v70,2013-05-21 14:57:00,
2013-05-21 11:02:00,77.0,77.0,29.93,WSW,247,6.0,11.0,100,0.00,,,0.00,Weather View 32 v70,2013-05-21 15:02:00,
2013-05-21 11:07:00,77.0,77.0,29.93,WSW,247,5.0,11.0,100,0.00,,,0.00,Weather View 32 v70,2013-05-21 15:07:00,
2013-05-21 11:12:00,77.0,77.0,29.94,SW,225,2.0,10.0,100,0.00,,,0.00,Weather View 32 v70,2013-05-21 15:12:00,
2013-05-21 11:17:00,78.0,78.0,29.94,WSW,247,6.0,10.0,100,0.00,,,0.00,Weather View 32 v70,2013-05-21 15:17:00,
2013-05-21 11:22:00,78.0,78.0,29.93,SW,225,2.0,10.0,100,0.00,,,0.00,Weather View 32 v70,2013-05-21 15:22:00,
2013-05-21 11:27:00,78.0,78.0,29.93,West,270,2.0,10.0,100,0.00,,,0.00,Weather View 32 v70,2013-05-21 15:27:00,
2013-05-21 11:32:00,79.0,78.7,29.93,SW,225,2.0,10.0,99,0.00,,,0.00,Weather View 32 v70,2013-05-21 15:32:00,
2013-05-21 11:37:00,79.0,79.0,29.93,SW,225,4.0,10.0,100,0.00,,,0.00,Weather View 32 v70,2013-05-21 15:37:00,
2013-05-21 11:42:00,79.0,79.0,29.93,WSW,247,2.0,10.0,100,0.00,,,0.00,Weather View 32 v70,2013-05-21 15:42:00,
2013-05-21 11:47:00,80.0,79.4,29.93,WSW,247,1.0,10.0,98,0.00,,,0.00,Weather View 32 v70,2013-05-21 15:47:00,
2013-05-21 11:52:00,80.0,78.8,29.91,WSW,247,3.0,10.0,96,0.00,,,0.00,Weather View 32 v70,2013-05-21 15:52:00,
2013-05-21 11:57:00,80.0,78.8,29.91,WSW,247,2.0,10.0,96,0.00,,,0.00,Weather View 32 v70,2013-05-21 15:57:00,
2013-05-21 12:02:00,80.0,78.1,29.91,West,270,3.0,10.0,94,0.00,,,0.00,Weather View 32 v70,2013-05-21 16:02:00,
2013-05-21 12:07:00,80.0,77.5,29.91,SW,225,3.0,10.0,92,0.00,,,0.00,Weather View 32 v70,2013-05-21 16:07:00,
2013-05-21 12:12:00,81.0,78.8,29.91,SSW,202,2.0,10.0,93,0.00,,,0.00,Weather View 32 v70,2013-05-21 16:12:00,
2013-05-21 12:17:00,82.0,78.4,29.91,SW,225,3.0,10.0,89,0.00,,,0.00,Weather View 32 v70,2013-05-21 16:17:00,
2013-05-21 12:22:00,82.0,78.1,29.91,WSW,247,3.0,10.0,88,0.00,,,0.00,Weather View 32 v70,2013-05-21 16:22:00,
2013-05-21 12:27:00,81.0,77.4,29.91,WSW,247,6.0,10.0,89,0.00,,,0.00,Weather View 32 v70,2013-05-21 16:27:00,
2013-05-21 12:32:00,82.0,78.4,29.90,NW,315,5.0,10.0,89,0.00,,,0.00,Weather View 32 v70,2013-05-21 16:32:00,
2013-05-21 12:37:00,83.0,78.0,29.90,WSW,247,0.0,9.0,85,0.00,,,0.00,Weather View 32 v70,2013-05-21 16:37:00,
2013-05-21 12:42:00,83.0,76.9,29.90,SW,225,6.0,9.0,82,0.00,,,0.00,Weather View 32 v70,2013-05-21 16:42:00,
2013-05-21 12:47:00,83.0,76.9,29.90,West,270,6.0,9.0,82,0.00,,,0.00,Weather View 32 v70,2013-05-21 16:47:00,
2013-05-21 12:52:00,83.0,76.5,29.90,WSW,247,7.0,9.0,81,0.00,,,0.00,Weather View 32 v70,2013-05-21 16:52:00,
2013-05-21 12:57:00,82.0,77.4,29.90,West,270,2.0,9.0,86,0.00,,,0.00,Weather View 32 v70,2013-05-21 16:57:00,
2013-05-21 13:02:00,83.0,75.4,29.90,WSW,247,9.0,9.0,78,0.00,,,0.00,Weather View 32 v70,2013-05-21 17:02:00,
2013-05-21 13:07:00,84.0,77.1,29.90,SW,225,1.0,9.0,80,0.00,,,0.00,Weather View 32 v70,2013-05-21 17:07:00,
2013-05-21 13:12:00,84.0,76.8,29.88,West,270,6.0,9.0,79,0.00,,,0.00,Weather View 32 v70,2013-05-21 17:12:00,
2013-05-21 13:17:00,84.0,76.4,29.88,SW,225,3.0,9.0,78,0.00,,,0.00,Weather View 32 v70,2013-05-21 17:17:00,
2013-05-21 13:22:00,84.0,77.1,29.89,SW,225,3.0,9.0,80,0.00,,,0.00,Weather View 32 v70,2013-05-21 17:22:00,
2013-05-21 13:27:00,84.0,76.0,29.89,SW,225,1.0,9.0,77,0.00,,,0.00,Weather View 32 v70,2013-05-21 17:27:00,
2013-05-21 13:32:00,84.0,75.6,29.88,SW,225,2.0,9.0,76,0.00,,,0.00,Weather View 32 v70,2013-05-21 17:32:00,
2013-05-21 13:37:00,84.0,76.4,29.88,West,270,3.0,9.0,78,0.00,,,0.00,Weather View 32 v70,2013-05-21 17:37:00,
2013-05-21 13:42:00,84.0,75.6,29.87,SW,225,3.0,9.0,76,0.00,,,0.00,Weather View 32 v70,2013-05-21 17:42:00,
2013-05-21 13:47:00,85.0,75.3,29.87,SSW,202,2.0,9.0,73,0.00,,,0.00,Weather View 32 v70,2013-05-21 17:47:00,
2013-05-21 13:52:00,85.0,75.3,29.86,SSW,202,1.0,9.0,73,0.00,,,0.00,Weather View 32 v70,2013-05-21 17:52:00,
2013-05-21 13:57:00,86.0,75.5,29.86,South,180,4.0,9.0,71,0.00,,,0.00,Weather View 32 v70,2013-05-21 17:57:00,
2013-05-21 14:02:00,86.0,74.2,29.85,WSW,247,6.0,9.0,68,0.00,,,0.00,Weather View 32 v70,2013-05-21 18:02:00,
2013-05-21 14:07:00,84.0,73.5,29.85,SW,225,3.0,8.0,71,0.00,,,0.00,Weather View 32 v70,2013-05-21 18:07:00,
2013-05-21 14:12:00,84.0,74.4,29.86,SW,225,3.0,8.0,73,0.00,,,0.00,Weather View 32 v70,2013-05-21 18:12:00,
2013-05-21 14:17:00,83.0,73.8,29.86,WSW,247,2.0,8.0,74,0.00,,,0.00,Weather View 32 v70,2013-05-21 18:17:00,
2013-05-21 14:22:00,84.0,75.6,29.86,WSW,247,3.0,8.0,76,0.00,,,0.00,Weather View 32 v70,2013-05-21 18:22:00,
2013-05-21 14:27:00,84.0,75.6,29.86,SW,225,6.0,8.0,76,0.00,,,0.00,Weather View 32 v70,2013-05-21 18:27:00,
2013-05-21 14:32:00,84.0,75.2,29.85,WSW,247,4.0,8.0,75,0.00,,,0.00,Weather View 32 v70,2013-05-21 18:32:00,
2013-05-21 14:37:00,84.0,74.8,29.85,SSW,202,0.0,8.0,74,0.00,,,0.00,Weather View 32 v70,2013-05-21 18:37:00,
2013-05-21 14:42:00,85.0,72.3,29.84,WSW,247,4.0,8.0,66,0.00,,,0.00,Weather View 32 v70,2013-05-21 18:42:00,
2013-05-21 14:47:00,85.0,73.6,29.84,SW,225,2.0,8.0,69,0.00,,,0.00,Weather View 32 v70,2013-05-21 18:47:00,
2013-05-21 14:52:00,85.0,71.9,29.85,SW,225,2.0,8.0,65,0.00,,,0.00,Weather View 32 v70,2013-05-21 18:52:00,
2013-05-21 14:57:00,85.0,73.6,29.85,West,270,5.0,8.0,69,0.00,,,0.00,Weather View 32 v70,2013-05-21 18:57:00,
2013-05-21 15:02:00,85.0,71.9,29.84,WSW,247,5.0,8.0,65,0.00,,,0.00,Weather View 32 v70,2013-05-21 19:02:00,
2013-05-21 15:07:00,85.0,72.8,29.84,West,270,0.0,8.0,67,0.00,,,0.00,Weather View 32 v70,2013-05-21 19:07:00,
2013-05-21 15:12:00,86.0,74.2,29.83,SW,225,6.0,8.0,68,0.00,,,0.00,Weather View 32 v70,2013-05-21 19:12:00,
2013-05-21 15:17:00,86.0,71.4,29.83,SW,225,1.0,8.0,62,0.00,,,0.00,Weather View 32 v70,2013-05-21 19:17:00,
2013-05-21 15:22:00,86.0,71.4,29.83,WSW,247,1.0,8.0,62,0.00,,,0.00,Weather View 32 v70,2013-05-21 19:22:00,
2013-05-21 15:27:00,87.0,73.3,29.83,WSW,247,6.0,8.0,64,0.00,,,0.00,Weather View 32 v70,2013-05-21 19:27:00,
2013-05-21 15:32:00,86.0,71.4,29.83,WSW,247,2.0,8.0,62,0.00,,,0.00,Weather View 32 v70,2013-05-21 19:32:00,
2013-05-21 15:37:00,87.0,70.9,29.83,SW,225,2.0,8.0,59,0.00,,,0.00,Weather View 32 v70,2013-05-21 19:37:00,
2013-05-21 15:42:00,88.0,70.8,29.82,SSW,202,0.0,8.0,57,0.00,,,0.00,Weather View 32 v70,2013-05-21 19:42:00,
2013-05-21 15:47:00,87.0,69.3,29.82,West,270,2.0,8.0,56,0.00,,,0.00,Weather View 32 v70,2013-05-21 19:47:00,
2013-05-21 15:52:00,88.0,70.3,29.82,WSW,247,1.0,8.0,56,0.00,,,0.00,Weather View 32 v70,2013-05-21 19:52:00,
2013-05-21 15:57:00,89.0,67.9,29.82,SSW,202,0.0,8.0,50,0.00,,,0.00,Weather View 32 v70,2013-05-21 19:57:00,
2013-05-21 16:02:00,90.0,68.8,29.80,SSW,202,1.0,8.0,50,0.00,,,0.00,Weather View 32 v70,2013-05-21 20:02:00,
2013-05-21 16:07:00,90.0,69.4,29.80,SW,225,6.0,8.0,51,0.00,,,0.00,Weather View 32 v70,2013-05-21 20:07:00,
2013-05-21 16:13:00,88.0,66.9,29.80,WSW,247,6.0,8.0,50,0.00,,,0.00,Weather View 32 v70,2013-05-21 20:13:00,
2013-05-21 16:18:00,89.0,71.2,29.80,SSW,202,1.0,8.0,56,0.00,,,0.00,Weather View 32 v70,2013-05-21 20:18:00,
2013-05-21 16:23:00,88.0,73.8,29.80,SW,225,3.0,8.0,63,0.00,,,0.00,Weather View 32 v70,2013-05-21 20:23:00,
2013-05-21 16:28:00,86.0,73.7,29.80,WSW,247,1.0,8.0,67,0.00,,,0.00,Weather View 32 v70,2013-05-21 20:28:00,
2013-05-21 16:33:00,86.0,73.7,29.80,SW,225,0.0,9.0,67,0.00,,,0.00,Weather View 32 v70,2013-05-21 20:33:00,
2013-05-21 16:38:00,87.0,75.1,29.80,South,180,4.0,9.0,68,0.00,,,0.00,Weather View 32 v70,2013-05-21 20:38:00,
2013-05-21 16:43:00,86.0,73.7,29.79,SW,225,0.0,9.0,67,0.00,,,0.00,Weather View 32 v70,2013-05-21 20:43:00,
2013-05-21 16:48:00,85.0,73.2,29.79,South,180,1.0,9.0,68,0.00,,,0.00,Weather View 32 v70,2013-05-21 20:48:00,
2013-05-21 16:53:00,85.0,75.3,29.81,SSW,202,2.0,9.0,73,0.00,,,0.00,Weather View 32 v70,2013-05-21 20:53:00,
2013-05-21 16:58:00,85.0,75.7,29.81,SW,225,0.0,10.0,74,0.00,,,0.00,Weather View 32 v70,2013-05-21 20:58:00,
2013-05-21 17:03:00,86.0,75.9,29.80,North,360,0.0,10.0,72,0.00,,,0.00,Weather View 32 v70,2013-05-21 21:03:00,
2013-05-21 17:08:00,87.0,74.7,29.80,SW,225,1.0,10.0,67,0.00,,,0.00,Weather View 32 v70,2013-05-21 21:08:00,
2013-05-21 17:13:00,87.0,74.2,29.80,South,180,0.0,10.0,66,0.00,,,0.00,Weather View 32 v70,2013-05-21 21:13:00,
2013-05-21 17:18:00,87.0,74.7,29.80,South,180,0.0,10.0,67,0.00,,,0.00,Weather View 32 v70,2013-05-21 21:18:00,
2013-05-21 17:23:00,87.0,73.8,29.79,West,270,1.0,10.0,65,0.00,,,0.00,Weather View 32 v70,2013-05-21 21:23:00,
2013-05-21 17:28:00,87.0,74.7,29.79,South,180,2.0,10.0,67,0.00,,,0.00,Weather View 32 v70,2013-05-21 21:28:00,
2013-05-21 17:33:00,87.0,74.2,29.80,SW,225,0.0,10.0,66,0.00,,,0.00,Weather View 32 v70,2013-05-21 21:33:00,
2013-05-21 17:38:00,87.0,74.2,29.80,ENE,67,1.0,10.0,66,0.00,,,0.00,Weather View 32 v70,2013-05-21 21:38:00,
2013-05-21 17:43:00,87.0,74.2,29.80,SW,225,4.0,10.0,66,0.00,,,0.00,Weather View 32 v70,2013-05-21 21:43:00,
2013-05-21 17:48:00,87.0,74.7,29.80,South,180,3.0,10.0,67,0.00,,,0.00,Weather View 32 v70,2013-05-21 21:48:00,
2013-05-21 17:53:00,87.0,75.1,29.80,South,180,1.0,10.0,68,0.00,,,0.00,Weather View 32 v70,2013-05-21 21:53:00,
2013-05-21 17:58:00,86.0,75.0,29.80,South,180,1.0,9.0,70,0.00,,,0.00,Weather View 32 v70,2013-05-21 21:58:00,
2013-05-21 18:03:00,85.0,75.7,29.80,SSW,202,2.0,9.0,74,0.00,,,0.00,Weather View 32 v70,2013-05-21 22:03:00,
2013-05-21 18:08:00,85.0,75.3,29.80,SSW,202,0.0,9.0,73,0.00,,,0.00,Weather View 32 v70,2013-05-21 22:08:00,
2013-05-21 18:13:00,84.0,75.2,29.81,SW,225,1.0,9.0,75,0.00,,,0.00,Weather View 32 v70,2013-05-21 22:13:00,
2013-05-21 18:18:00,84.0,74.8,29.81,SW,225,7.0,9.0,74,0.00,,,0.00,Weather View 32 v70,2013-05-21 22:18:00,
2013-05-21 18:23:00,84.0,74.4,29.81,South,180,1.0,9.0,73,0.00,,,0.00,Weather View 32 v70,2013-05-21 22:23:00,
2013-05-21 18:28:00,83.0,73.8,29.81,SE,135,6.0,8.0,74,0.00,,,0.00,Weather View 32 v70,2013-05-21 22:28:00,
2013-05-21 18:33:00,82.0,74.4,29.81,SW,225,0.0,12.0,78,0.00,,,0.00,Weather View 32 v70,2013-05-21 22:33:00,
2013-05-21 18:38:00,83.0,75.8,29.81,SE,135,0.0,12.0,79,0.00,,,0.00,Weather View 32 v70,2013-05-21 22:38:00,
2013-05-21 18:43:00,82.0,74.8,29.82,South,180,0.0,12.0,79,0.00,,,0.00,Weather View 32 v70,2013-05-21 22:43:00,
2013-05-21 18:48:00,82.0,75.2,29.82,SW,225,2.0,12.0,80,0.00,,,0.00,Weather View 32 v70,2013-05-21 22:48:00,
2013-05-21 18:53:00,81.0,75.0,29.82,South,180,1.0,12.0,82,0.00,,,0.00,Weather View 32 v70,2013-05-21 22:53:00,
2013-05-21 18:58:00,81.0,76.0,29.82,South,180,4.0,12.0,85,0.00,,,0.00,Weather View 32 v70,2013-05-21 22:58:00,
2013-05-21 19:03:00,81.0,75.3,29.82,SSW,202,1.0,12.0,83,0.00,,,0.00,Weather View 32 v70,2013-05-21 23:03:00,
2013-05-21 19:08:00,80.0,75.4,29.82,SE,135,0.0,12.0,86,0.00,,,0.00,Weather View 32 v70,2013-05-21 23:08:00,
2013-05-21 19:13:00,80.0,75.8,29.83,SW,225,2.0,12.0,87,0.00,,,0.00,Weather View 32 v70,2013-05-21 23:13:00,
2013-05-21 19:18:00,80.0,76.1,29.83,SSW,202,1.0,12.0,88,0.00,,,0.00,Weather View 32 v70,2013-05-21 23:18:00,
2013-05-21 19:23:00,79.0,75.5,29.82,SW,225,2.0,12.0,89,0.00,,,0.00,Weather View 32 v70,2013-05-21 23:23:00,
2013-05-21 19:28:00,79.0,75.8,29.82,SW,225,3.0,12.0,90,0.00,,,0.00,Weather View 32 v70,2013-05-21 23:28:00,
2013-05-21 19:33:00,79.0,76.5,29.83,South,180,0.0,9.0,92,0.00,,,0.00,Weather View 32 v70,2013-05-21 23:33:00,
2013-05-21 19:38:00,79.0,76.5,29.83,South,180,0.0,9.0,92,0.00,,,0.00,Weather View 32 v70,2013-05-21 23:38:00,
2013-05-21 19:43:00,79.0,76.5,29.83,SSW,202,0.0,9.0,92,0.00,,,0.00,Weather View 32 v70,2013-05-21 23:43:00,
2013-05-21 19:48:00,78.0,76.4,29.83,SSW,202,1.0,9.0,95,0.00,,,0.00,Weather View 32 v70,2013-05-21 23:48:00,
2013-05-21 19:53:00,78.0,76.8,29.84,South,180,1.0,9.0,96,0.00,,,0.00,Weather View 32 v70,2013-05-21 23:53:00,
2013-05-21 19:58:00,77.0,76.4,29.84,South,180,1.0,9.0,98,0.00,,,0.00,Weather View 32 v70,2013-05-21 23:58:00,
2013-05-21 20:03:00,77.0,77.0,29.84,SW,225,0.0,9.0,100,0.00,,,0.00,Weather View 32 v70,2013-05-22 00:03:00,
2013-05-21 20:08:00,76.0,76.0,29.84,SSW,202,0.0,9.0,100,0.00,,,0.00,Weather View 32 v70,2013-05-22 00:08:00,
2013-05-21 20:13:00,76.0,76.0,29.85,SW,225,0.0,9.0,100,0.00,,,0.00,Weather View 32 v70,2013-05-22 00:13:00,
2013-05-21 20:18:00,75.0,74.7,29.85,SSW,202,0.0,9.0,99,0.00,,,0.00,Weather View 32 v70,2013-05-22 00:18:00,
2013-05-21 20:23:00,75.0,74.7,29.85,SSW,202,0.0,9.0,99,0.00,,,0.00,Weather View 32 v70,2013-05-22 00:23:00,
2013-05-21 20:28:00,75.0,74.7,29.85,SW,225,2.0,9.0,99,0.00,,,0.00,Weather View 32 v70,2013-05-22 00:28:00,
2013-05-21 20:33:00,75.0,74.7,29.85,SW,225,0.0,9.0,99,0.00,,,0.00,Weather View 32 v70,2013-05-22 00:33:00,
2013-05-21 20:38:00,74.0,73.7,29.85,SW,225,1.0,9.0,99,0.00,,,0.00,Weather View 32 v70,2013-05-22 00:38:00,
2013-05-21 20:43:00,74.0,73.7,29.86,SW,225,0.0,9.0,99,0.00,,,0.00,Weather View 32 v70,2013-05-22 00:43:00,
2013-05-21 20:48:00,74.0,73.7,29.86,SW,225,0.0,9.0,99,0.00,,,0.00,Weather View 32 v70,2013-05-22 00:48:00,
2013-05-21 20:53:00,73.0,72.7,29.85,SW,225,0.0,9.0,99,0.00,,,0.00,Weather View 32 v70,2013-05-22 00:53:00,
2013-05-21 20:58:00,73.0,72.7,29.85,West,270,0.0,7.0,99,0.00,,,0.00,Weather View 32 v70,2013-05-22 00:58:00,
2013-05-21 21:03:00,73.0,72.7,29.86,SW,225,0.0,7.0,99,0.00,,,0.00,Weather View 32 v70,2013-05-22 01:03:00,
2013-05-21 21:08:00,73.0,72.7,29.86,SW,225,0.0,7.0,99,0.00,,,0.00,Weather View 32 v70,2013-05-22 01:08:00,
2013-05-21 21:13:00,73.0,72.7,29.86,SW,225,0.0,7.0,99,0.00,,,0.00,Weather View 32 v70,2013-05-22 01:13:00,
2013-05-21 21:18:00,73.0,72.7,29.86,SW,225,0.0,7.0,99,0.00,,,0.00,Weather View 32 v70,2013-05-22 01:18:00,
2013-05-21 21:23:00,73.0,72.7,29.87,SW,225,0.0,7.0,99,0.00,,,0.00,Weather View 32 v70,2013-05-22 01:23:00,
2013-05-21 21:28:00,72.0,71.7,29.87,SW,225,0.0,7.0,99,0.00,,,0.00,Weather View 32 v70,2013-05-22 01:28:00,
2013-05-21 21:33:00,72.0,71.7,29.87,SW,225,0.0,6.0,99,0.00,,,0.00,Weather View 32 v70,2013-05-22 01:33:00,
2013-05-21 21:38:00,72.0,71.7,29.87,SW,225,0.0,6.0,99,0.00,,,0.00,Weather View 32 v70,2013-05-22 01:38:00,
2013-05-21 21:43:00,72.0,71.7,29.88,SW,225,0.0,6.0,99,0.00,,,0.00,Weather View 32 v70,2013-05-22 01:43:00,
2013-05-21 21:48:00,72.0,71.7,29.88,SW,225,0.0,6.0,99,0.00,,,0.00,Weather View 32 v70,2013-05-22 01:48:00,
2013-05-21 21:53:00,72.0,71.7,29.88,SSW,202,1.0,6.0,99,0.00,,,0.00,Weather View 32 v70,2013-05-22 01:53:00,
2013-05-21 21:58:00,72.0,71.7,29.88,SW,225,0.0,7.0,99,0.00,,,0.00,Weather View 32 v70,2013-05-22 01:58:00,
2013-05-21 22:04:00,72.0,71.7,29.89,SW,225,1.0,7.0,99,0.00,,,0.00,Weather View 32 v70,2013-05-22 02:04:00,
2013-05-21 22:09:00,72.0,71.7,29.89,SSW,202,0.0,7.0,99,0.00,,,0.00,Weather View 32 v70,2013-05-22 02:09:00,
2013-05-21 22:14:00,72.0,71.7,29.89,WNW,292,5.0,7.0,99,0.00,,,0.00,Weather View 32 v70,2013-05-22 02:14:00,
2013-05-21 22:19:00,72.0,71.7,29.89,SW,225,3.0,9.0,99,0.00,,,0.00,Weather View 32 v70,2013-05-22 02:19:00,
2013-05-21 22:24:00,72.0,71.7,29.89,SW,225,2.0,9.0,99,0.00,,,0.00,Weather View 32 v70,2013-05-22 02:24:00,
2013-05-21 22:29:00,72.0,71.7,29.89,WSW,247,4.0,9.0,99,0.00,,,0.00,Weather View 32 v70,2013-05-22 02:29:00,
2013-05-21 22:34:00,72.0,71.7,29.89,SW,225,3.0,9.0,99,0.00,,,0.00,Weather View 32 v70,2013-05-22 02:34:00,
2013-05-21 22:39:00,72.0,71.7,29.89,SW,225,7.0,9.0,99,0.00,,,0.00,Weather View 32 v70,2013-05-22 02:39:00,
2013-05-21 22:44:00,72.0,71.7,29.89,WSW,247,2.0,10.0,99,0.00,,,0.00,Weather View 32 v70,2013-05-22 02:44:00,
2013-05-21 22:49:00,72.0,71.7,29.89,SW,225,2.0,10.0,99,0.00,,,0.00,Weather View 32 v70,2013-05-22 02:49:00,
2013-05-21 22:54:00,71.0,70.7,29.89,WSW,247,0.0,10.0,99,0.00,,,0.00,Weather View 32 v70,2013-05-22 02:54:00,
2013-05-21 22:59:00,71.0,70.7,29.89,SW,225,3.0,10.0,99,0.00,,,0.00,Weather View 32 v70,2013-05-22 02:59:00,
2013-05-21 23:04:00,71.0,70.7,29.91,WSW,247,2.0,10.0,99,0.00,,,0.00,Weather View 32 v70,2013-05-22 03:04:00,
2013-05-21 23:09:00,71.0,70.7,29.91,SW,225,2.0,10.0,99,0.00,,,0.00,Weather View 32 v70,2013-05-22 03:09:00,
2013-05-21 23:14:00,71.0,70.7,29.90,SW,225,1.0,10.0,99,0.00,,,0.00,Weather View 32 v70,2013-05-22 03:14:00,
2013-05-21 23:19:00,71.0,70.7,29.90,WSW,247,1.0,10.0,99,0.00,,,0.00,Weather View 32 v70,2013-05-22 03:19:00,
2013-05-21 23:24:00,71.0,70.7,29.91,WSW,247,2.0,10.0,99,0.00,,,0.00,Weather View 32 v70,2013-05-22 03:24:00,
2013-05-21 23:29:00,71.0,70.7,29.91,SW,225,3.0,10.0,99,0.00,,,0.00,Weather View 32 v70,2013-05-22 03:29:00,
2013-05-21 23:34:00,71.0,70.7,29.91,SW,225,4.0,10.0,99,0.00,,,0.00,Weather View 32 v70,2013-05-22 03:34:00,
2013-05-21 23:39:00,71.0,70.7,29.91,SSW,202,3.0,10.0,99,0.00,,,0.00,Weather View 32 v70,2013-05-22 03:39:00,
2013-05-21 23:44:00,70.0,69.7,29.91,SW,225,1.0,9.0,99,0.00,,,0.00,Weather View 32 v70,2013-05-22 03:44:00,
2013-05-21 23:49:00,70.0,69.7,29.91,SW,225,3.0,9.0,99,0.00,,,0.00,Weather View 32 v70,2013-05-22 03:49:00,
2013-05-21 23:54:00,70.0,69.7,29.91,SW,225,0.0,9.0,99,0.00,,,0.00,Weather View 32 v70,2013-05-22 03:54:00,
2013-05-21 23:59:00,70.0,69.7,29.91,SW,225,1.0,9.0,99,0.00,,,0.00,Weather View 32 v70,2013-05-22 03:59:00,